| time (UTC) | temp F | wind direction | speed knots | gust knots | rain 1hr in | rain 24hr in | rain mn in | humidity % | barometer mb |
| 20260509040743 | 56 | 300 | 1.7 | 2.6 | 0.00 | 0.00 | 0.00 | 89 | 1016.7 |
| 20260509040239 | 56 | 307 | 1.7 | 1.7 | 0.00 | 0.00 | 0.00 | 89 | 1016.7 |
| 20260509035736 | 56 | 292 | 1.7 | 1.7 | 0.00 | 0.00 | 0.00 | 89 | 1016.8 |
| 20260509035233 | 56 | 294 | 1.7 | 2.6 | 0.00 | 0.00 | 0.00 | 88 | 1016.9 |
| 20260509034730 | 56 | 307 | 1.7 | 3.5 | 0.00 | 0.00 | 0.00 | 88 | 1016.6 |
| 20260509034228 | 57 | 281 | 1.7 | 2.6 | 0.00 | 0.00 | 0.00 | 88 | 1016.7 |
| 20260509033724 | 56 | 304 | 1.7 | 3.5 | 0.00 | 0.00 | 0.00 | 87 | 1016.5 |
| 20260509033221 | 57 | 290 | 1.7 | 3.5 | 0.00 | 0.00 | 0.00 | 86 | 1016.7 |
| 20260509032719 | 57 | 287 | 1.7 | 2.6 | 0.00 | 0.00 | 0.00 | 87 | 1016.8 |
| 20260509032215 | 57 | 276 | 1.7 | 3.5 | 0.00 | 0.00 | 0.00 | 86 | 1016.7 |
| 20260509031713 | 58 | 311 | 1.7 | 1.7 | 0.00 | 0.00 | 0.00 | 86 | 1016.7 |
| 20260509031210 | 58 | 269 | 1.7 | 1.7 | 0.00 | 0.00 | 0.00 | 85 | 1016.8 |
| 20260509030708 | 59 | 214 | 0.9 | 1.7 | 0.00 | 0.00 | 0.00 | 86 | 1016.8 |
| 20260509030205 | 58 | 160 | 0.9 | 2.6 | 0.00 | 0.00 | 0.00 | 85 | 1016.7 |
| 20260509025701 | 59 | 270 | 0.9 | 2.6 | 0.00 | 0.00 | 0.00 | 84 | 1016.9 |
| 20260509025158 | 59 | 279 | 0.9 | 2.6 | 0.00 | 0.00 | 0.00 | 84 | 1016.9 |
| 20260509024653 | 59 | 289 | 1.7 | 1.7 | 0.00 | 0.00 | 0.00 | 84 | 1016.9 |
| 20260509024149 | 58 | 306 | 1.7 | 2.6 | 0.00 | 0.00 | 0.00 | 82 | 1016.8 |
| 20260509023647 | 59 | 275 | 1.7 | 1.7 | 0.00 | 0.00 | 0.00 | 82 | 1017.1 |
| 20260509023144 | 59 | 296 | 1.7 | 2.6 | 0.00 | 0.00 | 0.00 | 83 | 1017.1 |
| 20260509022640 | 59 | 281 | 1.7 | 2.6 | 0.00 | 0.00 | 0.00 | 82 | 1017.1 |
| 20260509022138 | 59 | 297 | 1.7 | 3.5 | 0.00 | 0.00 | 0.00 | 81 | 1016.9 |
| 20260509021634 | 59 | 286 | 2.6 | 2.6 | 0.00 | 0.00 | 0.00 | 80 | 1016.8 |
| 20260509021132 | 60 | 294 | 1.7 | 2.6 | 0.00 | 0.00 | 0.00 | 79 | 1016.8 |
| 20260509020630 | 60 | 286 | 1.7 | 2.6 | 0.00 | 0.00 | 0.00 | 81 | 1016.7 |
| 20260509020126 | 60 | 291 | 1.7 | 2.6 | 0.00 | 0.00 | 0.00 | 79 | 1016.6 |
| 20260509015626 | 60 | 291 | 1.7 | 2.6 | 0.00 | 0.00 | 0.00 | 79 | 1016.6 |
| 20260509015122 | 60 | 284 | 1.7 | 1.7 | 0.00 | 0.00 | 0.00 | 79 | 1016.7 |
| 20260509014619 | 61 | 298 | 1.7 | 2.6 | 0.00 | 0.00 | 0.00 | 78 | 1016.4 |
| 20260509014115 | 61 | 278 | 1.7 | 2.6 | 0.00 | 0.00 | 0.00 | 77 | 1016.5 |
| 20260509013613 | 61 | 302 | 1.7 | 2.6 | 0.00 | 0.00 | 0.00 | 76 | 1016.6 |
| 20260509013108 | 62 | 287 | 1.7 | 1.7 | 0.00 | 0.00 | 0.00 | 76 | 1016.2 |
| 20260509012605 | 62 | 264 | 0.9 | 2.6 | 0.00 | 0.00 | 0.00 | 75 | 1016.4 |
| 20260509012102 | 62 | 288 | 0.9 | 2.6 | 0.00 | 0.00 | 0.00 | 74 | 1016.5 |
| 20260509011600 | 63 | 297 | 0.9 | 1.7 | 0.00 | 0.00 | 0.00 | 73 | 1016.5 |
| 20260509011056 | 64 | 230 | 0.9 | 1.7 | 0.00 | 0.00 | 0.00 | 71 | 1016.6 |
| 20260509010554 | 63 | 184 | 0.0 | 1.7 | 0.00 | 0.00 | 0.00 | 71 | 1016.7 |
| 20260509010051 | 64 | 273 | 0.9 | 1.7 | 0.00 | 0.00 | 0.00 | 70 | 1016.4 |
| 20260509005549 | 64 | 274 | 1.7 | 2.6 | 0.00 | 0.00 | 0.00 | 70 | 1016.7 |
| 20260509005044 | 65 | 168 | 0.0 | 0.9 | 0.00 | 0.00 | 0.00 | 68 | 1016.6 |
| 20260509004541 | 65 | 192 | 0.9 | 1.7 | 0.00 | 0.00 | 0.00 | 67 | 1016.5 |
| 20260509004038 | 64 | 169 | 3.5 | 5.2 | 0.00 | 0.00 | 0.00 | 71 | 1016.6 |
| 20260509003537 | 64 | 287 | 1.7 | 1.7 | 0.00 | 0.00 | 0.00 | 68 | 1016.7 |
| 20260509003033 | 65 | 167 | 0.0 | 1.7 | 0.00 | 0.00 | 0.00 | 65 | 1016.4 |
| 20260509002531 | 66 | 306 | 0.9 | 2.6 | 0.00 | 0.00 | 0.00 | 63 | 1016.6 |
| 20260509002028 | 67 | 217 | 0.9 | 1.7 | 0.00 | 0.00 | 0.00 | 64 | 1016.6 |
| 20260509001525 | 69 | 209 | 1.7 | 1.7 | 0.00 | 0.00 | 0.00 | 60 | 1016.4 |
| 20260509001021 | 69 | 194 | 4.3 | 7.0 | 0.00 | 0.00 | 0.00 | 63 | 1016.7 |
| 20260509000520 | 69 | 202 | 5.2 | 6.1 | 0.00 | 0.00 | 0.00 | 61 | 1016.6 |
| 20260509000015 | 67 | 189 | 5.2 | 7.0 | 0.00 | 0.00 | 0.00 | 60 | 1016.5 |
| 20260508235514 | 68 | 258 | 0.9 | 1.7 | 0.00 | 0.00 | 0.00 | 64 | 1016.5 |
| 20260508235009 | 69 | 212 | 1.7 | 5.2 | 0.00 | 0.00 | 0.00 | 58 | 1016.4 |
| 20260508234507 | 69 | 203 | 0.9 | 5.2 | 0.00 | 0.00 | 0.00 | 60 | 1016.5 |
| 20260508234004 | 69 | 202 | 0.0 | 2.6 | 0.00 | 0.00 | 0.00 | 59 | 1016.4 |
| 20260508233503 | 70 | 181 | 3.5 | 6.1 | 0.00 | 0.00 | 0.00 | 60 | 1016.4 |
| 20260508233000 | 70 | 184 | 3.5 | 6.1 | 0.00 | 0.00 | 0.00 | 57 | 1016.4 |
| 20260508232457 | 70 | 180 | 0.9 | 2.6 | 0.00 | 0.00 | 0.00 | 56 | 1016.3 |
| 20260508231954 | 70 | 178 | 0.9 | 1.7 | 0.00 | 0.00 | 0.00 | 54 | 1016.5 |
| 20260508231451 | 70 | 186 | 0.9 | 5.2 | 0.00 | 0.00 | 0.00 | 54 | 1016.4 |
| 20260508230948 | 71 | 199 | 2.6 | 6.1 | 0.00 | 0.00 | 0.00 | 54 | 1016.6 |
| 20260508230445 | 71 | 198 | 3.5 | 3.5 | 0.00 | 0.00 | 0.00 | 52 | 1016.5 |
| 20260508225942 | 71 | 186 | 2.6 | 5.2 | 0.00 | 0.00 | 0.00 | 53 | 1016.6 |
| 20260508225439 | 71 | 185 | 2.6 | 2.6 | 0.00 | 0.00 | 0.00 | 52 | 1016.6 |
| 20260508224936 | 71 | 182 | 3.5 | 7.0 | 0.00 | 0.00 | 0.00 | 50 | 1016.6 |
| 20260508224433 | 72 | 169 | 5.2 | 7.0 | 0.00 | 0.00 | 0.00 | 53 | 1016.6 |
| 20260508223930 | 72 | 178 | 5.2 | 7.0 | 0.00 | 0.00 | 0.00 | 53 | 1016.7 |
| 20260508223429 | 71 | 174 | 4.3 | 6.1 | 0.00 | 0.00 | 0.00 | 54 | 1016.8 |
| 20260508222925 | 71 | 201 | 0.9 | 5.2 | 0.00 | 0.00 | 0.00 | 55 | 1016.7 |
| 20260508222422 | 72 | 173 | 4.3 | 6.1 | 0.00 | 0.00 | 0.00 | 53 | 1016.7 |
| 20260508221919 | 71 | 192 | 5.2 | 6.1 | 0.00 | 0.00 | 0.00 | 52 | 1016.9 |
| 20260508221415 | 71 | 182 | 2.6 | 3.5 | 0.00 | 0.00 | 0.00 | 49 | 1016.7 |
| 20260508220911 | 71 | 189 | 3.5 | 5.2 | 0.00 | 0.00 | 0.00 | 49 | 1016.7 |
| 20260508220408 | 73 | 180 | 0.0 | 0.9 | 0.00 | 0.00 | 0.00 | 51 | 1016.6 |
| 20260508215904 | 73 | 268 | 0.9 | 0.9 | 0.00 | 0.00 | 0.00 | 48 | 1016.7 |
| 20260508215401 | 72 | 188 | 0.0 | 1.7 | 0.00 | 0.00 | 0.00 | 52 | 1016.5 |
| 20260508214858 | 73 | 192 | 0.0 | 0.9 | 0.00 | 0.00 | 0.00 | 46 | 1016.6 |
| 20260508214356 | 73 | 188 | 1.7 | 1.7 | 0.00 | 0.00 | 0.00 | 45 | 1016.5 |
| 20260508213852 | 72 | 244 | 0.9 | 1.7 | 0.00 | 0.00 | 0.00 | 49 | 1016.5 |
| 20260508213349 | 72 | 183 | 0.0 | 1.7 | 0.00 | 0.00 | 0.00 | 47 | 1016.6 |
| 20260508212844 | 73 | 187 | 0.9 | 1.7 | 0.00 | 0.00 | 0.00 | 48 | 1016.5 |
| 20260508212341 | 72 | 283 | 0.9 | 2.6 | 0.00 | 0.00 | 0.00 | 49 | 1016.5 |
| 20260508211837 | 72 | 188 | 1.7 | 2.6 | 0.00 | 0.00 | 0.00 | 49 | 1016.7 |
| 20260508211333 | 71 | 196 | 2.6 | 5.2 | 0.00 | 0.00 | 0.00 | 44 | 1016.8 |
| 20260508210831 | 72 | 182 | 0.9 | 1.7 | 0.00 | 0.00 | 0.00 | 43 | 1016.8 |
| 20260508210327 | 72 | 168 | 0.9 | 3.5 | 0.00 | 0.00 | 0.00 | 44 | 1016.8 |
| 20260508205824 | 72 | 195 | 2.6 | 3.5 | 0.00 | 0.00 | 0.00 | 43 | 1017.0 |
| 20260508205320 | 74 | 195 | 3.5 | 3.5 | 0.00 | 0.00 | 0.00 | 40 | 1016.9 |
| 20260508204816 | 73 | 178 | 0.9 | 3.5 | 0.00 | 0.00 | 0.00 | 38 | 1017.3 |
| 20260508204313 | 73 | 170 | 1.7 | 2.6 | 0.00 | 0.00 | 0.00 | 39 | 1017.2 |
| 20260508203809 | 73 | 182 | 3.5 | 3.5 | 0.00 | 0.00 | 0.00 | 40 | 1017.2 |
| 20260508203305 | 74 | 197 | 1.7 | 2.6 | 0.00 | 0.00 | 0.00 | 38 | 1017.1 |
| 20260508202801 | 72 | 158 | 0.9 | 1.7 | 0.00 | 0.00 | 0.00 | 44 | 1017.1 |
| 20260508202259 | 72 | 193 | 0.9 | 1.7 | 0.00 | 0.00 | 0.00 | 38 | 1017.2 |
| 20260508201756 | 73 | 164 | 1.7 | 2.6 | 0.00 | 0.00 | 0.00 | 39 | 1017.2 |
| 20260508201252 | 73 | 181 | 0.0 | 1.7 | 0.00 | 0.00 | 0.00 | 39 | 1017.0 |
| 20260508200749 | 72 | 124 | 0.9 | 0.9 | 0.00 | 0.00 | 0.00 | 41 | 1017.5 |
| 20260508200245 | 74 | 134 | 0.0 | 0.0 | 0.00 | 0.00 | 0.00 | 38 | 1017.3 |
| 20260508195741 | 75 | 168 | 0.0 | 1.7 | 0.00 | 0.00 | 0.00 | 38 | 1017.3 |
| 20260508195238 | 74 | 170 | 0.9 | 1.7 | 0.00 | 0.00 | 0.00 | 37 | 1017.5 |
| 20260508194735 | 75 | 206 | 1.7 | 1.7 | 0.00 | 0.00 | 0.00 | 37 | 1017.4 |
| 20260508194232 | 74 | 204 | 0.0 | 1.7 | 0.00 | 0.00 | 0.00 | 35 | 1017.8 |
| 20260508193729 | 74 | 154 | 0.9 | 0.9 | 0.00 | 0.00 | 0.00 | 39 | 1017.9 |
| 20260508193225 | 75 | 166 | 0.9 | 1.7 | 0.00 | 0.00 | 0.00 | 37 | 1017.9 |
| 20260508192722 | 74 | 157 | 0.0 | 1.7 | 0.00 | 0.00 | 0.00 | 38 | 1017.7 |
| 20260508192219 | 73 | 135 | 0.9 | 1.7 | 0.00 | 0.00 | 0.00 | 39 | 1018.0 |
| 20260508191716 | 74 | 198 | 0.9 | 1.7 | 0.00 | 0.00 | 0.00 | 37 | 1018.1 |
| 20260508191213 | 73 | 160 | 0.0 | 0.9 | 0.00 | 0.00 | 0.00 | 38 | 1018.1 |
| 20260508190710 | 72 | 137 | 0.0 | 0.0 | 0.00 | 0.00 | 0.00 | 40 | 1018.4 |
| 20260508190206 | 71 | 153 | 0.0 | 0.9 | 0.00 | 0.00 | 0.00 | 39 | 1018.4 |
| 20260508185703 | 70 | 97 | 0.9 | 1.7 | 0.00 | 0.00 | 0.00 | 44 | 1018.0 |
| 20260508185200 | 72 | 128 | 0.9 | 1.7 | 0.00 | 0.00 | 0.00 | 38 | 1018.2 |
| 20260508184658 | 74 | 153 | 0.0 | 0.9 | 0.00 | 0.00 | 0.00 | 39 | 1018.7 |
| 20260508184155 | 73 | 192 | 0.9 | 1.7 | 0.00 | 0.00 | 0.00 | 38 | 1018.7 |
| 20260508183652 | 72 | 187 | 0.9 | 0.9 | 0.00 | 0.00 | 0.00 | 40 | 1019.0 |
| 20260508183148 | 71 | 146 | 0.0 | 0.9 | 0.00 | 0.00 | 0.00 | 40 | 1019.0 |
| 20260508182644 | 71 | 143 | 0.0 | 0.9 | 0.00 | 0.00 | 0.00 | 39 | 1019.1 |
| 20260508182141 | 71 | 152 | 0.9 | 2.6 | 0.00 | 0.00 | 0.00 | 42 | 1019.2 |
| 20260508181636 | 72 | 176 | 3.5 | 3.5 | 0.00 | 0.00 | 0.00 | 43 | 1019.2 |
| 20260508181134 | 73 | 170 | 0.0 | 0.9 | 0.00 | 0.00 | 0.00 | 41 | 1019.3 |
| 20260508180630 | 71 | 123 | 0.9 | 0.9 | 0.00 | 0.00 | 0.00 | 38 | 1019.4 |
| 20260508180127 | 73 | 164 | 0.0 | 0.9 | 0.00 | 0.00 | 0.00 | 41 | 1019.2 |
| 20260508175623 | 72 | 160 | 0.0 | 0.9 | 0.00 | 0.00 | 0.00 | 41 | 1019.3 |
| 20260508175120 | 71 | 135 | 0.0 | 0.9 | 0.00 | 0.00 | 0.00 | 42 | 1019.4 |
| 20260508174618 | 70 | 138 | 0.0 | 1.7 | 0.00 | 0.00 | 0.00 | 41 | 1019.5 |
| 20260508174115 | 72 | 178 | 1.7 | 1.7 | 0.00 | 0.00 | 0.00 | 39 | 1019.7 |
| 20260508173612 | 72 | 172 | 0.9 | 0.9 | 0.00 | 0.00 | 0.00 | 42 | 1019.8 |
| 20260508173108 | 71 | 166 | 0.0 | 1.7 | 0.00 | 0.00 | 0.00 | 41 | 1019.6 |
| 20260508172605 | 71 | 166 | 0.0 | 1.7 | 0.00 | 0.00 | 0.00 | 42 | 1019.8 |
| 20260508172101 | 70 | 170 | 0.9 | 1.7 | 0.00 | 0.00 | 0.00 | 46 | 1019.9 |
| 20260508171558 | 69 | 144 | 0.0 | 0.0 | 0.00 | 0.00 | 0.00 | 49 | 1020.0 |
| 20260508171054 | 68 | 127 | 0.0 | 0.0 | 0.00 | 0.00 | 0.00 | 46 | 1020.0 |
| 20260508170552 | 68 | 220 | 0.0 | 0.9 | 0.00 | 0.00 | 0.00 | 46 | 1020.3 |
| 20260508170049 | 66 | 108 | 0.9 | 2.6 | 0.00 | 0.00 | 0.00 | 47 | 1020.0 |
| 20260508165546 | 67 | 106 | 0.9 | 0.9 | 0.00 | 0.00 | 0.00 | 46 | 1019.9 |
| 20260508165043 | 70 | 184 | 0.0 | 0.9 | 0.00 | 0.00 | 0.00 | 47 | 1020.4 |
| 20260508164539 | 67 | 130 | 0.0 | 0.9 | 0.00 | 0.00 | 0.00 | 47 | 1020.3 |
| 20260508164036 | 66 | 61 | 0.9 | 1.7 | 0.00 | 0.00 | 0.00 | 46 | 1020.9 |
| 20260508163534 | 67 | 131 | 0.0 | 0.0 | 0.00 | 0.00 | 0.00 | 50 | 1020.7 |
| 20260508163030 | 67 | 135 | 0.0 | 1.7 | 0.00 | 0.00 | 0.00 | 49 | 1020.8 |
| 20260508162527 | 69 | 87 | 0.0 | 0.9 | 0.00 | 0.00 | 0.00 | 45 | 1021.0 |
| 20260508162025 | 70 | 196 | 0.9 | 0.9 | 0.00 | 0.00 | 0.00 | 43 | 1020.8 |
| 20260508161521 | 70 | 144 | 0.0 | 0.0 | 0.00 | 0.00 | 0.00 | 48 | 1021.1 |
| 20260508161018 | 69 | 157 | 0.0 | 0.0 | 0.00 | 0.00 | 0.00 | 49 | 1020.8 |
| 20260508160517 | 68 | 177 | 0.9 | 2.6 | 0.00 | 0.00 | 0.00 | 49 | 1021.3 |
| 20260508160014 | 68 | 160 | 0.9 | 1.7 | 0.00 | 0.00 | 0.00 | 50 | 1021.5 |
| 20260508155510 | 67 | 146 | 0.9 | 0.9 | 0.00 | 0.00 | 0.00 | 51 | 1021.3 |
| 20260508155008 | 65 | 146 | 0.0 | 1.7 | 0.00 | 0.00 | 0.00 | 52 | 1021.4 |
| 20260508154505 | 64 | 69 | 1.7 | 1.7 | 0.00 | 0.00 | 0.00 | 54 | 1021.3 |
| 20260508154001 | 65 | 61 | 1.7 | 1.7 | 0.00 | 0.00 | 0.00 | 52 | 1021.3 |
| 20260508153458 | 66 | 130 | 0.9 | 0.9 | 0.00 | 0.00 | 0.00 | 52 | 1021.3 |
| 20260508152954 | 66 | 94 | 0.9 | 1.7 | 0.00 | 0.00 | 0.00 | 52 | 1021.5 |
| 20260508152451 | 67 | 139 | 0.0 | 0.9 | 0.00 | 0.00 | 0.00 | 53 | 1021.5 |
| 20260508151947 | 65 | 62 | 0.9 | 1.7 | 0.00 | 0.00 | 0.00 | 54 | 1021.6 |
| 20260508151444 | 68 | 158 | 0.0 | 0.0 | 0.00 | 0.00 | 0.00 | 56 | 1021.8 |
| 20260508150941 | 67 | 131 | 0.0 | 0.9 | 0.00 | 0.00 | 0.00 | 56 | 1021.7 |
| 20260508150437 | 64 | 107 | 0.0 | 0.9 | 0.00 | 0.00 | 0.00 | 59 | 1021.6 |
| 20260508145933 | 63 | 78 | 0.0 | 0.9 | 0.00 | 0.00 | 0.00 | 61 | 1021.5 |
| 20260508145430 | 63 | 51 | 0.9 | 0.9 | 0.00 | 0.00 | 0.00 | 62 | 1021.7 |
| 20260508144927 | 62 | 107 | 0.9 | 1.7 | 0.00 | 0.00 | 0.00 | 65 | 1021.7 |
| 20260508144425 | 61 | 63 | 1.7 | 1.7 | 0.00 | 0.00 | 0.00 | 65 | 1021.9 |
| 20260508143922 | 61 | 102 | 0.9 | 1.7 | 0.00 | 0.00 | 0.00 | 64 | 1021.9 |
| 20260508143419 | 60 | 81 | 1.7 | 2.6 | 0.00 | 0.00 | 0.00 | 65 | 1021.8 |
| 20260508142915 | 61 | 68 | 1.7 | 2.6 | 0.00 | 0.00 | 0.00 | 65 | 1021.8 |
| 20260508142413 | 61 | 147 | 0.9 | 1.7 | 0.00 | 0.00 | 0.00 | 62 | 1021.7 |
| 20260508141909 | 61 | 113 | 0.0 | 1.7 | 0.00 | 0.00 | 0.00 | 63 | 1022.0 |
| 20260508141406 | 61 | 62 | 0.9 | 1.7 | 0.00 | 0.00 | 0.00 | 61 | 1022.0 |
| 20260508140904 | 60 | 109 | 1.7 | 1.7 | 0.00 | 0.00 | 0.00 | 63 | 1022.1 |
| 20260508140400 | 60 | 91 | 1.7 | 2.6 | 0.00 | 0.00 | 0.00 | 64 | 1022.0 |
| 20260508135856 | 60 | 106 | 0.9 | 1.7 | 0.00 | 0.00 | 0.00 | 63 | 1022.0 |
| 20260508135352 | 59 | 64 | 1.7 | 3.5 | 0.00 | 0.00 | 0.00 | 63 | 1021.6 |
| 20260508134849 | 59 | 76 | 1.7 | 5.2 | 0.00 | 0.00 | 0.00 | 65 | 1021.9 |
| 20260508134345 | 60 | 37 | 1.7 | 3.5 | 0.00 | 0.00 | 0.00 | 63 | 1021.7 |
| 20260508133842 | 59 | 89 | 0.9 | 3.5 | 0.00 | 0.00 | 0.00 | 63 | 1021.7 |
| 20260508133340 | 60 | 120 | 0.0 | 2.6 | 0.00 | 0.00 | 0.00 | 62 | 1021.8 |
| 20260508132837 | 59 | 358 | 1.7 | 3.5 | 0.00 | 0.00 | 0.00 | 65 | 1021.7 |
| 20260508132335 | 59 | 88 | 1.7 | 2.6 | 0.00 | 0.00 | 0.00 | 65 | 1021.9 |
| 20260508131831 | 59 | 67 | 1.7 | 2.6 | 0.00 | 0.00 | 0.00 | 65 | 1021.9 |
| 20260508131327 | 59 | 85 | 0.9 | 1.7 | 0.00 | 0.00 | 0.00 | 64 | 1021.7 |
| 20260508130824 | 60 | 99 | 0.9 | 1.7 | 0.00 | 0.00 | 0.00 | 64 | 1021.8 |
| 20260508130321 | 60 | 119 | 0.0 | 0.9 | 0.00 | 0.00 | 0.00 | 63 | 1021.8 |
| 20260508125817 | 60 | 81 | 1.7 | 2.6 | 0.00 | 0.00 | 0.00 | 66 | 1021.8 |
| 20260508125313 | 62 | 135 | 0.0 | 0.0 | 0.00 | 0.00 | 0.00 | 66 | 1021.9 |
| 20260508124811 | 59 | 98 | 0.0 | 0.9 | 0.00 | 0.00 | 0.00 | 66 | 1021.9 |
| 20260508124308 | 61 | 117 | 0.0 | 0.9 | 0.00 | 0.00 | 0.00 | 66 | 1021.8 |
| 20260508123806 | 59 | 103 | 0.0 | 0.0 | 0.00 | 0.00 | 0.00 | 75 | 1022.2 |
| 20260508123304 | 56 | 4 | 0.0 | 0.0 | 0.00 | 0.00 | 0.00 | 77 | 1022.1 |
| 20260508122800 | 55 | 297 | 0.0 | 1.7 | 0.00 | 0.00 | 0.00 | 79 | 1021.9 |
| 20260508122257 | 55 | 326 | 0.9 | 0.9 | 0.00 | 0.00 | 0.00 | 80 | 1021.7 |
| 20260508121754 | 53 | 300 | 0.9 | 2.6 | 0.00 | 0.00 | 0.00 | 83 | 1021.5 |
| 20260508121253 | 52 | 270 | 0.9 | 2.6 | 0.00 | 0.00 | 0.00 | 86 | 1021.7 |
| 20260508120749 | 52 | 293 | 0.9 | 1.7 | 0.00 | 0.00 | 0.00 | 89 | 1021.7 |
| 20260508120248 | 51 | 289 | 1.7 | 1.7 | 0.00 | 0.00 | 0.00 | 90 | 1021.7 |
| 20260508115745 | 50 | 290 | 1.7 | 1.7 | 0.00 | 0.00 | 0.00 | 90 | 1021.6 |
| 20260508115242 | 49 | 282 | 1.7 | 2.6 | 0.00 | 0.00 | 0.00 | 90 | 1021.4 |
| 20260508114733 | 49 | 296 | 1.7 | 1.7 | 0.00 | 0.00 | 0.00 | 91 | 1021.4 |
| 20260508114230 | 48 | 293 | 1.7 | 2.6 | 0.00 | 0.00 | 0.00 | 91 | 1021.1 |
| 20260508113726 | 48 | 290 | 1.7 | 3.5 | 0.00 | 0.00 | 0.00 | 91 | 1020.9 |
| 20260508113225 | 47 | 299 | 1.7 | 2.6 | 0.00 | 0.00 | 0.00 | 91 | 1020.9 |
| 20260508112721 | 47 | 304 | 1.7 | 2.6 | 0.00 | 0.00 | 0.00 | 91 | 1020.9 |
| 20260508112218 | 47 | 297 | 2.6 | 2.6 | 0.00 | 0.00 | 0.00 | 92 | 1020.8 |
| 20260508111715 | 46 | 294 | 1.7 | 2.6 | 0.00 | 0.00 | 0.00 | 92 | 1020.9 |
| 20260508111213 | 46 | 296 | 2.6 | 2.6 | 0.00 | 0.00 | 0.00 | 93 | 1020.6 |
| 20260508110710 | 46 | 295 | 1.7 | 2.6 | 0.00 | 0.00 | 0.00 | 93 | 1020.5 |
| 20260508110207 | 46 | 293 | 1.7 | 2.6 | 0.00 | 0.00 | 0.00 | 93 | 1020.4 |
| 20260508105706 | 46 | 298 | 2.6 | 2.6 | 0.00 | 0.00 | 0.00 | 93 | 1020.3 |
| 20260508105204 | 46 | 305 | 2.6 | 2.6 | 0.00 | 0.00 | 0.00 | 92 | 1020.2 |
| 20260508104701 | 46 | 302 | 2.6 | 3.5 | 0.00 | 0.00 | 0.00 | 92 | 1020.2 |
| 20260508104158 | 46 | 314 | 1.7 | 2.6 | 0.00 | 0.00 | 0.00 | 92 | 1020.1 |
| 20260508103655 | 46 | 299 | 2.6 | 2.6 | 0.00 | 0.00 | 0.00 | 91 | 1020.1 |
| 20260508103152 | 46 | 297 | 2.6 | 2.6 | 0.00 | 0.00 | 0.00 | 91 | 1019.9 |
| 20260508102649 | 46 | 293 | 2.6 | 2.6 | 0.00 | 0.00 | 0.00 | 92 | 1020.0 |
| 20260508102147 | 46 | 302 | 1.7 | 2.6 | 0.00 | 0.00 | 0.00 | 92 | 1019.8 |
| 20260508101644 | 47 | 298 | 1.7 | 2.6 | 0.00 | 0.00 | 0.00 | 91 | 1019.8 |
| 20260508101141 | 47 | 296 | 1.7 | 2.6 | 0.00 | 0.00 | 0.00 | 91 | 1019.7 |
| 20260508100638 | 48 | 303 | 1.7 | 1.7 | 0.00 | 0.00 | 0.00 | 91 | 1019.6 |
| 20260508100136 | 48 | 300 | 2.6 | 2.6 | 0.00 | 0.00 | 0.00 | 90 | 1019.7 |
| 20260508095633 | 48 | 302 | 2.6 | 2.6 | 0.00 | 0.00 | 0.00 | 90 | 1019.8 |
| 20260508095130 | 47 | 299 | 2.6 | 3.5 | 0.00 | 0.00 | 0.00 | 89 | 1019.8 |
| 20260508094627 | 48 | 289 | 2.6 | 2.6 | 0.00 | 0.00 | 0.00 | 90 | 1019.6 |
| 20260508094124 | 48 | 295 | 2.6 | 2.6 | 0.00 | 0.00 | 0.00 | 90 | 1019.7 |
| 20260508093621 | 48 | 285 | 1.7 | 2.6 | 0.00 | 0.00 | 0.00 | 89 | 1019.7 |
| 20260508093119 | 48 | 295 | 1.7 | 2.6 | 0.00 | 0.00 | 0.00 | 88 | 1019.6 |
| 20260508092616 | 49 | 287 | 1.7 | 2.6 | 0.00 | 0.00 | 0.00 | 89 | 1019.6 |
| 20260508092114 | 49 | 291 | 1.7 | 1.7 | 0.00 | 0.00 | 0.00 | 88 | 1019.6 |
| 20260508091611 | 49 | 281 | 0.9 | 1.7 | 0.00 | 0.00 | 0.00 | 88 | 1019.5 |
| 20260508091108 | 49 | 296 | 0.9 | 1.7 | 0.00 | 0.00 | 0.00 | 89 | 1019.6 |
| 20260508090606 | 49 | 288 | 1.7 | 1.7 | 0.00 | 0.00 | 0.00 | 88 | 1019.6 |
| 20260508090103 | 49 | 293 | 1.7 | 1.7 | 0.00 | 0.00 | 0.00 | 88 | 1019.4 |
| 20260508085559 | 49 | 298 | 1.7 | 1.7 | 0.00 | 0.00 | 0.00 | 88 | 1019.5 |
| 20260508085056 | 49 | 286 | 1.7 | 1.7 | 0.00 | 0.00 | 0.00 | 88 | 1019.4 |
| 20260508084552 | 50 | 298 | 1.7 | 1.7 | 0.00 | 0.00 | 0.00 | 88 | 1019.4 |
| 20260508084049 | 50 | 302 | 1.7 | 1.7 | 0.00 | 0.00 | 0.00 | 88 | 1019.4 |
| 20260508083547 | 50 | 287 | 1.7 | 1.7 | 0.00 | 0.00 | 0.00 | 88 | 1019.4 |
| 20260508083043 | 51 | 282 | 1.7 | 1.7 | 0.00 | 0.00 | 0.00 | 88 | 1019.4 |
| 20260508082539 | 51 | 302 | 0.9 | 1.7 | 0.00 | 0.00 | 0.00 | 88 | 1019.3 |
| 20260508082037 | 51 | 282 | 1.7 | 1.7 | 0.00 | 0.00 | 0.00 | 87 | 1019.2 |
| 20260508081534 | 51 | 286 | 1.7 | 1.7 | 0.00 | 0.00 | 0.00 | 86 | 1019.4 |
| 20260508081030 | 51 | 283 | 0.9 | 2.6 | 0.00 | 0.00 | 0.00 | 87 | 1019.5 |
| 20260508080529 | 51 | 284 | 1.7 | 1.7 | 0.00 | 0.00 | 0.00 | 87 | 1019.5 |
| 20260508080025 | 52 | 295 | 0.9 | 0.9 | 0.00 | 0.00 | 0.00 | 86 | 1019.5 |
| 20260508075522 | 52 | 286 | 0.9 | 0.9 | 0.00 | 0.00 | 0.00 | 86 | 1019.2 |
| 20260508075019 | 51 | 339 | 0.9 | 0.9 | 0.00 | 0.00 | 0.00 | 86 | 1019.5 |
| 20260508074517 | 51 | 300 | 0.9 | 0.9 | 0.00 | 0.00 | 0.00 | 88 | 1019.3 |
| 20260508074014 | 51 | 289 | 0.9 | 1.7 | 0.00 | 0.00 | 0.00 | 88 | 1019.5 |
| 20260508073511 | 52 | 304 | 0.9 | 1.7 | 0.00 | 0.00 | 0.00 | 88 | 1019.5 |
| 20260508073009 | 52 | 333 | 0.0 | 1.7 | 0.00 | 0.00 | 0.00 | 88 | 1019.4 |
| 20260508072504 | 51 | 316 | 1.7 | 1.7 | 0.00 | 0.00 | 0.00 | 89 | 1019.5 |
| 20260508072002 | 52 | 298 | 0.9 | 1.7 | 0.00 | 0.00 | 0.00 | 89 | 1019.5 |
| 20260508071459 | 51 | 281 | 1.7 | 1.7 | 0.00 | 0.00 | 0.00 | 89 | 1019.5 |
| 20260508070957 | 51 | 311 | 0.9 | 1.7 | 0.00 | 0.00 | 0.00 | 89 | 1019.6 |
| 20260508070454 | 51 | 290 | 1.7 | 1.7 | 0.00 | 0.00 | 0.00 | 88 | 1019.9 |
| 20260508065952 | 51 | 279 | 0.9 | 1.7 | 0.00 | 0.00 | 0.00 | 88 | 1019.7 |
| 20260508065450 | 51 | 280 | 1.7 | 1.7 | 0.00 | 0.00 | 0.00 | 89 | 1019.8 |
| 20260508064948 | 51 | 297 | 0.9 | 0.9 | 0.00 | 0.00 | 0.00 | 89 | 1019.7 |
| 20260508064445 | 51 | 299 | 1.7 | 1.7 | 0.00 | 0.00 | 0.00 | 89 | 1019.8 |
| 20260508063943 | 52 | 312 | 0.9 | 2.6 | 0.00 | 0.00 | 0.00 | 88 | 1019.8 |
| 20260508063440 | 51 | 298 | 1.7 | 2.6 | 0.00 | 0.00 | 0.00 | 87 | 1019.8 |
| 20260508062938 | 51 | 297 | 1.7 | 2.6 | 0.00 | 0.00 | 0.00 | 85 | 1019.8 |
| 20260508062436 | 52 | 295 | 1.7 | 1.7 | 0.00 | 0.00 | 0.00 | 85 | 1019.9 |
| 20260508061932 | 52 | 308 | 0.9 | 1.7 | 0.00 | 0.00 | 0.00 | 85 | 1020.0 |
| 20260508061430 | 52 | 291 | 0.9 | 1.7 | 0.00 | 0.00 | 0.00 | 86 | 1019.8 |
| 20260508060926 | 53 | 304 | 1.7 | 1.7 | 0.00 | 0.00 | 0.00 | 86 | 1019.9 |
| 20260508060424 | 53 | 310 | 1.7 | 1.7 | 0.00 | 0.00 | 0.00 | 84 | 1019.9 |
| 20260508055919 | 53 | 308 | 0.9 | 1.7 | 0.00 | 0.00 | 0.00 | 85 | 1020.0 |
| 20260508055416 | 53 | 278 | 0.9 | 1.7 | 0.00 | 0.00 | 0.00 | 85 | 1020.0 |
| 20260508054913 | 53 | 54 | 0.0 | 0.9 | 0.00 | 0.00 | 0.00 | 85 | 1019.8 |
| 20260508054410 | 53 | 23 | 0.0 | 0.9 | 0.00 | 0.00 | 0.00 | 85 | 1019.7 |
| 20260508053907 | 53 | 276 | 1.7 | 1.7 | 0.00 | 0.00 | 0.00 | 84 | 1019.7 |
| 20260508053404 | 54 | 284 | 0.9 | 1.7 | 0.00 | 0.00 | 0.00 | 83 | 1019.6 |
| 20260508052901 | 54 | 61 | 0.9 | 0.9 | 0.00 | 0.00 | 0.00 | 81 | 1019.8 |
| 20260508052359 | 54 | 325 | 0.9 | 1.7 | 0.00 | 0.00 | 0.00 | 84 | 1019.7 |
| 20260508051855 | 54 | 316 | 0.9 | 1.7 | 0.00 | 0.00 | 0.00 | 83 | 1019.5 |
| 20260508051350 | 55 | 65 | 0.0 | 0.9 | 0.00 | 0.00 | 0.00 | 79 | 1019.7 |
| 20260508050847 | 54 | 8 | 0.9 | 1.7 | 0.00 | 0.00 | 0.00 | 83 | 1019.6 |
| 20260508050344 | 54 | 296 | 2.6 | 2.6 | 0.00 | 0.00 | 0.00 | 85 | 1019.6 |
| 20260508045840 | 54 | 301 | 2.6 | 2.6 | 0.00 | 0.00 | 0.00 | 85 | 1019.7 |
| 20260508045337 | 54 | 303 | 1.7 | 2.6 | 0.00 | 0.00 | 0.00 | 85 | 1019.5 |
| 20260508044835 | 54 | 302 | 1.7 | 2.6 | 0.00 | 0.00 | 0.00 | 86 | 1019.7 |
| 20260508044331 | 54 | 297 | 1.7 | 2.6 | 0.00 | 0.00 | 0.00 | 86 | 1019.7 |
| 20260508043827 | 54 | 301 | 2.6 | 2.6 | 0.00 | 0.00 | 0.00 | 87 | 1019.7 |
| 20260508043324 | 55 | 279 | 1.7 | 2.6 | 0.00 | 0.00 | 0.00 | 87 | 1019.3 |
| 20260508042821 | 55 | 284 | 1.7 | 2.6 | 0.00 | 0.00 | 0.00 | 86 | 1019.2 |
| 20260508042319 | 55 | 293 | 1.7 | 2.6 | 0.00 | 0.00 | 0.00 | 86 | 1019.4 |
| 20260508041815 | 55 | 289 | 1.7 | 2.6 | 0.00 | 0.00 | 0.00 | 86 | 1019.4 |
| 20260508041312 | 55 | 309 | 1.7 | 1.7 | 0.00 | 0.00 | 0.00 | 85 | 1019.5 |